Location: Asheville, NC
(35.6000°N, 82.5500°W)
Time: 20:09:12
(UTC-04:00)

Vanguard 2 Rocket - Pass Details

Date: 12 December 2017
Orbit: 553 x 3328 km, 32.9° (Epoch: 24 April)

Event Time Altitude Azimuth Distance (km) Brightness Sun altitude
Rises 23:52:28 0° 276° (W) 6,463 11.4 -75.8°
Reaches altitude 10° 23:56:18 10° 275° (W) 5,704 11.0 -76.1°
Enters shadow 23:57:35 14° 275° (W) 5,462 10.8 -76.2°
Maximum altitude 00:15:24 76° 194° (SSW) 3,392 - -77.4°
Drops below altitude 10° 00:34:22 10° 113° (ESE) 5,671 - -77.3°
Exits shadow 00:37:59 - 112° (ESE) 6,386 11.2 -77.1°
Sets 00:38:11 0° 112° (ESE) 6,425 11.2 -77.1°
